Theta_e
299 301 300 301 301 302 301 301 302 300 300 300 299 299 297 296 295 295 295 295 295 295 295 296 296 295 295 295 295 295 294 294 295 295 296 296 297 298 301 304 308 319 329 339
299 302 301 304 304 303 303 302 304 303 301 300 299 298 297 297 297 296 296 295 295 295 295 295 296 295 294 294 295 295 294 294 295 295 295 296 296 297 299 302 305 310 319 327
300 301 304 304 304 304 302 305 305 305 302 301 302 301 296 297 296 297 296 296 296 295 295 295 295 295 294 294 294 294 294 294 294 294 294 295 296 296 298 299 301 305 309 316
302 303 304 305 305 305 304 303 304 305 306 308 305 302 298 296 296 297 296 296 296 295 295 295 295 295 294 294 294 293 294 294 294 294 294 295 295 296 297 298 300 303 307 310
303 303 304 304 304 304 304 303 304 305 305 302 302 300 296 296 297 298 297 297 296 295 294 294 294 295 294 293 294 293 293 294 293 294 294 294 294 295 295 297 299 303 308 315
300 300 302 304 303 303 302 303 299 301 301 293 298 296 291 296 297 298 297 297 296 295 294 294 295 295 294 294 294 293 293 293 293 293 294 294 294 294 294 295 297 299 302 309
298 299 299 301 302 301 302 299 290 294 295 294 301 301 293 296 298 298 297 296 295 294 292 293 294 295 295 294 294 294 293 293 293 293 293 293 294 294 294 294 295 296 299 302
295 300 299 300 303 302 303 299 290 292 294 301 299 293 293 296 297 296 295 294 293 292 292 292 294 295 295 294 294 294 294 293 293 293 293 293 293 293 293 293 294 295 296 298
289 297 298 302 301 299 302 301 300 294 298 291 292 291 295 297 295 295 294 293 293 293 293 293 294 295 294 294 294 293 293 294 293 293 293 293 292 293 293 293 293 293 295 296
290 293 297 301 300 299 300 300 298 298 296 290 291 299 291 293 291 292 292 291 293 293 293 293 294 294 294 294 294 293 293 293 293 293 293 293 292 292 292 292 292 292 293 295
292 291 300 300 298 293 295 293 293 290 288 289 284 289 286 290 288 288 290 290 290 291 292 292 293 294 294 293 293 293 293 293 292 293 293 293 292 291 291 291 291 291 291 293
300 291 299 300 303 299 297 288 283 290 291 279 283 290 286 289 290 292 291 290 290 290 291 293 293 294 294 293 292 292 292 292 292 291 292 292 292 291 291 290 291 291 291 291
300 294 292 298 298 298 300 299 290 281 279 282 289 292 289 289 290 290 290 291 291 292 292 293 293 293 293 292 292 291 291 292 291 291 291 292 291 290 290 290 290 290 290 291
300 295 293 294 297 297 295 300 295 289 285 281 286 288 289 288 288 290 292 293 293 293 293 292 292 292 293 292 291 291 291 290 289 289 290 292 290 290 289 289 289 289 289 290
299 296 300 301 301 301 299 301 297 288 288 290 285 284 289 289 291 293 294 293 293 293 293 292 291 292 292 291 290 290 290 289 288 288 289 291 289 289 289 289 288 289 289 288
299 300 301 303 303 302 302 301 299 298 292 286 288 288 288 291 292 294 294 293 293 293 292 292 292 292 291 290 290 290 289 288 288 288 288 290 288 288 289 288 288 288 289 288
299 299 300 305 303 300 296 294 300 297 293 293 294 291 291 295 294 294 293 293 292 292 292 291 291 292 290 289 289 289 289 288 288 288 288 288 287 287 288 288 288 288 288 288
299 299 299 302 303 293 297 298 298 299 298 294 295 295 295 296 293 292 293 292 292 292 293 292 291 291 290 289 289 289 289 289 288 288 287 286 286 286 287 287 288 288 288 288
298 298 298 295 301 299 300 301 299 299 298 297 297 297 297 296 293 293 293 293 293 292 293 291 291 290 290 289 289 289 288 288 288 287 286 286 285 286 286 286 287 287 287 287
296 297 295 297 297 296 297 298 299 298 295 297 298 298 297 295 295 293 292 293 293 293 291 291 290 289 289 289 288 288 288 287 287 286 285 285 285 286 286 286 287 287 287 287
299 296 293 283 289 297 296 297 298 296 295 295 297 297 297 295 294 293 292 293 293 291 290 289 289 289 288 288 288 288 287 287 286 285 285 285 285 285 286 286 286 286 287 287
300 296 292 290 287 293 295 298 298 296 295 296 296 296 296 294 293 293 293 292 290 289 288 288 288 287 287 287 287 286 286 286 285 285 285 285 285 285 285 285 285 285 286 287
298 297 295 295 293 295 295 296 295 294 295 295 296 295 294 294 294 294 292 291 290 288 288 287 287 287 287 286 286 285 285 285 284 285 285 284 284 284 285 285 285 285 286 286
296 295 295 296 297 295 296 296 296 295 295 295 295 296 294 295 294 293 291 290 288 287 288 287 287 287 286 286 285 285 284 284 284 285 284 284 284 285 284 284 284 285 285 286
294 296 296 297 297 297 297 296 296 297 295 295 295 295 294 293 293 292 291 289 287 288 287 286 286 286 286 285 285 284 284 284 284 285 285 285 285 285 284 284 284 284 284 285
294 297 298 298 297 297 297 298 297 296 295 294 294 293 293 293 292 291 289 287 287 288 287 285 286 286 286 285 285 284 284 284 285 284 284 284 284 284 283 283 283 284 284 284
Wind_Speed
7 9 5 5 4 2 2 2 1 3 7 8 6 4 2 4 4 8 10 11 13 14 20 26 28 29 27 28 28 30 29 31 33 34 34 35 35 35 30 30 27 28 17 40
6 9 6 3 4 4 2 2 2 2 8 6 4 4 1 3 4 5 7 9 11 14 16 25 28 30 29 28 28 30 29 30 31 30 29 27 33 29 33 30 31 27 28 22
8 3 4 3 7 8 4 4 2 4 6 6 5 2 4 2 3 8 7 7 9 10 13 18 26 28 31 30 29 30 31 29 28 32 30 26 29 31 28 31 34 34 30 29
7 6 5 5 3 4 4 4 6 4 2 3 1 3 3 5 6 11 11 11 11 12 11 18 23 26 27 28 28 30 33 30 29 30 32 29 26 26 33 32 32 35 36 35
1 6 6 4 5 5 5 13 6 3 6 4 4 3 4 5 7 13 11 12 12 11 9 12 21 24 27 31 29 31 31 33 33 32 28 30 29 28 30 32 32 30 30 32
1 3 3 2 8 3 9 3 6 5 3 4 4 4 5 3 4 7 8 12 12 13 13 19 22 23 26 31 33 33 31 32 36 33 33 30 32 32 32 31 32 28 31 31
6 4 7 4 4 4 7 5 3 5 5 3 4 1 5 3 4 4 8 11 12 11 10 12 18 24 26 29 30 32 33 32 34 36 33 31 30 30 30 32 29 32 27 30
4 6 7 8 2 2 4 4 4 2 1 4 4 2 4 4 6 5 6 7 8 9 9 11 18 20 21 27 30 31 30 31 33 33 34 33 28 29 28 33 33 28 28 28
4 3 5 1 2 3 4 5 2 4 3 3 3 6 4 5 7 7 8 8 9 8 9 9 17 20 25 28 30 30 29 30 32 33 33 33 34 30 33 34 36 32 30 30
4 3 2 4 4 6 6 2 2 3 4 4 4 2 4 8 8 8 11 10 9 8 9 10 18 20 25 28 29 32 31 28 28 29 29 31 35 35 33 34 37 41 35 33
5 3 5 2 3 4 4 4 4 4 3 3 1 5 7 7 6 8 10 9 9 8 8 8 18 20 22 27 30 31 33 31 31 30 31 29 32 36 35 33 37 40 42 36
3 4 2 5 1 4 3 4 5 4 6 1 4 5 4 7 8 7 9 8 8 6 8 13 18 18 20 25 29 31 33 32 33 34 30 30 30 33 35 37 37 38 42 41
5 2 3 5 4 2 3 2 4 5 3 3 4 5 3 5 7 6 6 8 7 8 9 12 16 18 18 24 27 29 31 31 31 33 31 29 31 35 34 37 37 34 39 41
4 3 6 5 6 3 2 1 3 4 3 3 5 7 8 9 8 9 8 8 8 8 8 7 12 16 17 23 28 28 29 30 31 30 30 24 30 31 33 33 33 35 35 40
3 3 3 4 6 3 2 3 4 3 4 5 5 5 9 9 8 7 6 7 7 9 8 8 7 13 16 23 27 27 27 28 30 29 27 25 30 27 29 31 34 31 34 35
2 2 4 1 5 1 4 5 5 4 4 4 4 7 7 8 7 6 8 7 8 8 8 8 10 13 15 21 23 25 26 28 29 28 28 25 28 26 27 28 34 34 35 37
3 3 1 1 3 4 5 5 6 4 3 5 3 9 3 7 7 7 7 7 8 8 7 7 9 8 14 19 21 23 26 28 28 25 25 24 28 26 26 27 26 30 31 32
5 3 1 1 3 3 6 3 4 6 5 7 7 7 8 8 7 8 6 6 8 7 6 9 9 9 15 19 21 21 25 27 26 23 23 23 24 26 28 24 24 25 24 26
3 4 3 3 2 5 4 3 5 5 7 6 8 9 8 4 5 7 4 4 6 7 9 7 4 11 16 18 21 20 25 25 24 24 23 25 26 26 24 28 23 23 24 24
5 5 4 1 1 3 6 3 5 4 4 4 7 9 8 3 3 6 6 6 11 8 7 7 8 11 14 17 18 20 23 22 23 24 23 25 28 29 28 29 27 28 29 29
3 2 5 2 2 7 6 4 5 4 6 4 6 8 5 4 6 4 8 10 8 8 10 10 10 11 15 16 18 17 22 21 24 24 21 24 28 29 30 31 30 30 29 29
6 5 3 3 2 7 6 4 5 7 4 5 5 6 6 7 6 6 6 6 8 9 12 13 11 12 14 15 18 15 20 22 24 24 22 23 29 31 32 31 29 29 28 26
3 6 5 8 6 6 7 8 9 4 6 4 3 5 5 4 4 4 4 6 7 10 11 11 11 11 13 16 17 14 17 20 23 22 24 25 29 30 29 27 26 27 27 25
3 4 3 3 5 8 8 5 6 6 7 4 5 3 4 4 1 3 4 4 6 9 11 10 11 11 13 17 16 13 14 15 21 21 23 26 27 28 26 22 23 23 23 23
5 6 6 4 5 4 7 7 8 6 6 5 3 4 4 4 3 3 1 3 6 7 8 10 9 10 11 17 15 15 14 15 20 19 20 22 26 25 20 20 21 21 23 23
5 7 5 6 8 5 5 4 4 7 8 8 6 4 4 5 5 3 1 3 5 6 7 9 8 10 12 15 15 16 16 18 18 19 19 20 20 22 22 22 19 20 22 22
Wind_Direction
8 57 45 11 42 80 145 173 249 93 162 79 90 116 15 337 18 12 5 357 359 356 348 354 353 355 355 358 360 0 358 358 355 349 347 343 334 327 321 310 301 281 296 218
44 51 355 90 38 26 20 56 11 326 159 92 160 62 311 12 26 5 349 350 353 351 353 352 354 357 358 354 357 359 359 357 358 353 344 335 331 323 317 319 313 301 300 284
82 344 4 52 30 7 343 140 254 229 91 67 153 63 8 345 356 4 5 348 355 354 348 347 350 355 356 354 350 358 357 356 354 357 351 342 338 333 331 327 320 309 289 294
67 330 47 33 14 25 312 358 311 252 173 135 187 261 316 353 346 3 356 357 347 344 344 347 354 353 353 354 357 357 360 356 356 354 358 354 348 333 326 320 316 312 308 288
222 17 17 9 327 357 297 316 312 165 130 106 5 74 280 12 351 348 344 345 341 335 332 337 350 350 352 359 359 2 358 360 354 357 357 359 349 343 334 327 324 319 314 300
29 290 40 326 315 98 319 354 12 42 67 45 273 111 307 353 309 320 332 339 338 337 333 339 347 352 356 2 5 5 0 2 357 353 357 358 360 348 341 336 333 331 324 314
348 7 334 25 357 4 359 47 359 6 20 224 311 78 234 246 303 305 330 330 328 325 326 328 334 344 351 357 360 6 359 358 358 357 352 355 355 359 347 340 335 333 329 319
78 358 2 351 36 288 19 60 123 171 7 287 342 316 274 249 283 316 335 312 313 323 318 323 333 340 347 357 358 1 353 354 354 356 354 351 349 355 356 350 341 337 332 320
120 314 332 1 4 48 339 43 124 99 57 35 282 305 333 356 333 334 328 326 320 317 319 311 331 353 359 359 1 360 354 347 352 355 353 353 353 349 354 354 353 343 341 336
209 60 228 278 46 33 84 303 49 27 33 330 304 290 242 322 308 320 336 325 316 308 316 322 339 349 358 0 359 1 358 348 344 346 350 351 352 352 351 355 356 354 344 345
141 98 288 55 35 191 356 8 37 105 111 148 301 281 220 244 263 292 300 296 291 302 311 315 335 346 351 358 1 359 355 352 350 349 351 350 353 352 354 352 359 356 356 349
156 149 89 229 120 156 129 165 125 105 287 116 147 278 231 246 281 267 284 293 298 310 317 318 339 342 348 355 359 356 353 349 351 348 343 350 353 355 356 357 357 357 3 358
186 5 32 355 19 32 76 159 107 106 80 216 118 266 284 302 321 310 284 301 312 317 320 320 337 340 349 354 355 352 351 351 346 345 347 351 354 355 356 356 357 357 3 7
107 85 146 184 214 173 331 97 116 113 102 190 225 289 309 314 314 309 306 301 308 309 316 318 328 339 350 356 357 352 352 353 348 348 350 350 356 355 358 358 355 3 5 14
105 134 178 250 261 196 218 227 164 130 190 156 251 221 270 273 276 276 285 294 311 310 317 314 322 338 349 354 353 353 358 354 356 355 353 349 354 353 354 355 360 358 9 16
47 168 189 65 41 36 260 241 211 191 177 268 245 278 227 268 282 277 286 301 301 303 310 313 327 338 349 350 348 348 354 353 357 355 355 354 357 357 355 355 360 3 7 16
113 125 100 44 358 320 348 239 193 192 185 169 211 239 277 298 293 281 279 296 292 294 298 303 316 333 345 347 346 344 350 352 351 348 353 356 357 358 356 355 357 1 6 10
130 117 83 112 337 18 241 177 217 198 234 214 263 261 255 253 272 274 263 264 284 289 299 309 331 345 347 348 349 343 351 356 350 352 356 1 358 357 352 355 356 1 5 9
147 118 93 120 198 280 309 203 182 173 275 224 226 254 262 265 311 300 273 251 269 290 317 330 357 349 340 347 350 352 354 359 353 354 358 358 357 354 356 353 354 360 4 10
82 71 114 121 64 252 234 236 147 117 304 247 202 245 254 98 316 271 277 295 323 1 20 33 11 356 359 356 357 358 359 356 357 354 354 356 356 354 351 353 355 359 6 5
123 67 156 133 206 284 238 154 143 87 240 226 201 235 252 199 213 250 306 324 9 59 44 25 27 20 3 4 2 3 359 355 355 0 353 355 358 355 350 351 359 1 2 0
159 151 182 97 99 285 178 89 175 214 231 232 234 242 239 239 282 281 315 8 49 39 27 25 32 25 23 16 4 358 358 358 358 358 354 353 355 357 354 356 357 357 359 353
181 182 176 176 211 229 205 198 216 168 218 230 215 250 228 241 256 327 352 40 35 28 30 29 36 32 28 21 13 0 354 358 1 352 351 351 354 357 359 358 355 356 356 351
236 161 189 104 227 220 228 248 246 207 224 234 228 222 178 223 324 64 70 34 15 21 28 23 23 20 14 12 13 10 357 356 1 353 354 349 350 352 359 1 1 357 353 353
197 139 185 251 274 275 258 223 236 243 220 204 183 173 176 138 96 104 74 6 7 17 21 13 13 10 7 9 13 8 358 353 343 343 344 344 343 346 352 359 354 356 1 0
190 182 172 217 207 172 222 219 187 189 193 190 154 122 108 132 146 133 104 358 6 9 0 5 10 6 6 8 12 11 0 354 352 352 347 346 346 348 353 351 352 0 4 3